Location: Demmingen
(48.6757°N, 10.4375°E)
Time: 09:41:52
(UTC+00:00)

CZ-2C R/B - Pass Details

Date: 03 August 2024
Orbit: 703 x 903 km, 98.2° (Epoch: 16 September)

Event Time Altitude Azimuth Distance (km) Brightness Sun altitude
Rises 02:35:20 0° 4° (N) 3,123 7.0 -11.5°
Reaches altitude 10° 02:37:52 10° 352° (N) 2,214 5.9 -11.2°
Maximum altitude 02:41:50 26° 297° (WNW) 1,424 4.2 -10.7°
Enters shadow 02:45:26 12° 245° (WSW) 2,118 4.7 -10.3°
